Location: Praha
(50.0830°N, 14.4670°E)
Time: 05:48:46
(UTC+01:00)

ISS - Pass Details

Date: 07 December 2019
Orbit: 411 x 421 km, 51.6° (Epoch: 15 December)

Event Time Altitude Azimuth Distance (km) Brightness Sun altitude
Rises 19:13:09 0° 281° (WNW) 2,362 1.2 -29.8°
Reaches altitude 10° 19:15:58 10° 256° (WSW) 1,497 -0.1 -30.2°
Enters shadow 19:16:40 12° 245° (WSW) 1,360 -0.5 -30.3°
